Location: Forst
(46.9333°N, 15.4333°E)
Time: 06:05:39
(UTC+00:00)

Lacrosse 5 rocket - Pass Details

Date: 24 April 2021
Orbit: 460 x 634 km, 57.0° (Epoch: 12 May)

Event Time Altitude Azimuth Distance (km) Brightness Sun altitude
Rises 20:30:32 0° 309° (NW) 2,759 6.3 -21.6°
Reaches altitude 10° 20:32:48 10° 315° (NW) 1,890 5.2 -21.9°
Maximum altitude 20:36:57 46° 30° (NNE) 802 2.2 -22.3°
Enters shadow 20:37:56 39° 67° (ENE) 903 2.2 -22.4°
